Flag for Morocco Weather past 2 weeks in Tangier, Morocco

Now
70 °F

Passing clouds.


Feels Like: 70 °F
Forecast: 72 / 92 °F
Wind: No wind

Location: Tanger Aerodrome

Current Time: Jul 6, 2015 at 5:09:46 AM

Latest Report: Jul 6, 2015 at 4:30 AM


Visibility: 5 mi

Pressure: 29.95 "Hg

Humidity: 83%

Dew point: 64 °F

Location of TangierLocation

Historic Weather in Tangier — Graph

°F

Tangier temperature yesterday

Maximum temperature yesterday: 88 °F (at 12:30 PM)
Minimum temperature yesterday: 73 °F (at 5:30 AM)
Average temperature yesterday: 80 °F

Past Weeks' High & Low Weather Summary

 TemperatureHumidityPressure
High99 °F (Jun 27, 12:00 PM)94% (Jun 21, 4:30 AM)30.12 "Hg (Jun 21, 4:30 AM)
Low61 °F (Jun 25, 12:30 AM)10% (Jun 27, 6:00 PM)29.92 "Hg (Jun 27, 5:30 PM)
Average75 °F65%30.03 "Hg
* Reported Jun 21 4:00 AM — Jul 6 4:00 AM, Tangier, Weather by CustomWeather, © 2015

Note: Actual official high and low records may vary slightly from our data, if they occured in-between our weather recording intervals... More about our weather records

Advertising

Tangier weather history for previous 24 hours

 ConditionsComfort  
Time TempWeatherWind HumidityBarometerVisibility
4:00 AM
Mon, Jul 6
72 °FPassing clouds.No wind83%29.95 "Hg5 mi
3:30 AM73 °FPassing clouds.1 mph74%29.95 "Hg1 mi
3:00 AM75 °FPassing clouds.No wind74%29.95 "Hg5 mi
2:30 AM75 °FPassing clouds.5 mph74%29.95 "Hg5 mi
2:00 AM77 °FPassing clouds.6 mph69%29.95 "Hg5 mi
1:30 AM77 °FPassing clouds.7 mph74%29.98 "Hg5 mi
1:00 AM77 °FPassing clouds.6 mph69%29.98 "Hg5 mi
12:30 AM75 °FPassing clouds.3 mph74%29.98 "Hg5 mi
12:00 AM77 °FPassing clouds.7 mph65%29.98 "Hg5 mi
11:30 PM
Sun, Jul 5
75 °FPassing clouds.14 mph74%29.95 "Hg5 mi
11:00 PM75 °FPassing clouds.16 mph69%29.95 "Hg5 mi
10:30 PM77 °FPassing clouds.10 mph65%29.95 "Hg5 mi
10:00 PM75 °FPassing clouds.9 mph69%29.95 "Hg5 mi
9:30 PM75 °FPassing clouds.14 mph74%29.95 "Hg5 mi
9:00 PM77 °FPassing clouds.15 mph69%29.95 "Hg5 mi
8:30 PM77 °FPassing clouds.18 mph69%29.92 "Hg5 mi
8:00 PM77 °FPassing clouds.20 mph69%29.92 "Hg5 mi
7:30 PM77 °FSunny.18 mph69%29.92 "Hg10 mi
7:00 PM79 °FSunny.18 mph65%29.92 "Hg10 mi
6:30 PM82 °FSunny.18 mph58%29.92 "Hg10 mi
6:00 PM84 °FSunny.20 mph51%29.92 "Hg10 mi
5:30 PM86 °FSunny.17 mph52%29.92 "Hg10 mi
5:00 PM84 °FSunny.18 mph51%29.92 "Hg10 mi
4:30 PM86 °FSunny.20 mph49%29.92 "Hg10 mi
4:00 PM86 °FSunny.21 mph49%29.92 "Hg10 mi
3:30 PM86 °FSunny.22 mph52%29.95 "Hg10 mi
3:00 PM88 °FSunny.18 mph46%29.95 "Hg10 mi
2:30 PM88 °FSunny.21 mph49%29.95 "Hg10 mi
2:00 PM86 °FClear.18 mph52%29.98 "Hg5 mi
1:30 PM88 °FClear.17 mph49%29.98 "Hg5 mi
1:00 PM88 °FClear.10 mph49%29.98 "Hg5 mi
12:30 PM88 °FClear.7 mph49%29.98 "Hg5 mi
12:00 PM84 °FClear.7 mph55%29.98 "Hg5 mi
11:30 AM82 °FClear.9 mph58%30.01 "Hg5 mi
11:00 AM82 °FClear.8 mph58%30.01 "Hg5 mi
10:30 AM82 °FClear.6 mph58%30.01 "Hg5 mi
10:00 AM79 °FClear.7 mph70%30.01 "Hg5 mi
9:30 AM79 °FClear.7 mph70%30.01 "Hg5 mi
9:00 AM77 °FClear.8 mph74%30.01 "Hg5 mi
8:30 AM77 °FClear.10 mph74%30.01 "Hg5 mi
8:00 AM75 °FClear.10 mph74%30.01 "Hg5 mi
7:30 AM77 °FClear.7 mph69%30.01 "Hg5 mi
7:00 AM79 °FClear.6 mph70%30.01 "Hg5 mi
6:30 AM75 °FClear.6 mph78%29.98 "Hg1 mi
6:00 AM75 °FClear.6 mph78%29.98 "Hg5 mi
5:30 AM73 °FScattered clouds.5 mph83%29.98 "Hg1 mi
5:00 AM75 °FPassing clouds.3 mph78%29.98 "Hg5 mi
Weather by CustomWeather, © 2015

See weather overviewHow to use our weather pages